Year,Month,Day,Hour,Minute,Value (Times are PST for temperature in C)
2023,04,16,00,02,7.60
2023,04,16,00,07,7.50
2023,04,16,00,12,7.50
2023,04,16,00,17,7.40
2023,04,16,00,22,7.30
2023,04,16,00,27,7.20
2023,04,16,00,32,7.00
2023,04,16,00,37,7.00
2023,04,16,00,42,6.90
2023,04,16,00,47,6.90
2023,04,16,00,52,6.90
2023,04,16,00,57,6.80
2023,04,16,01,02,6.80
2023,04,16,01,07,6.70
2023,04,16,01,12,6.50
2023,04,16,01,17,6.50
2023,04,16,01,22,6.30
2023,04,16,01,27,6.30
2023,04,16,01,32,6.20
2023,04,16,01,37,6.10
2023,04,16,01,42,6.00
2023,04,16,01,47,5.90
2023,04,16,01,52,5.80
2023,04,16,01,57,5.70
2023,04,16,02,02,5.70
2023,04,16,02,07,5.60
2023,04,16,02,12,5.60
2023,04,16,02,17,5.60
2023,04,16,02,22,5.60
2023,04,16,02,27,5.60
2023,04,16,02,32,5.60
2023,04,16,02,37,5.50
2023,04,16,02,42,5.50
2023,04,16,02,47,5.60
2023,04,16,02,52,5.60
2023,04,16,02,57,5.60
2023,04,16,03,02,5.70
2023,04,16,03,07,5.70
2023,04,16,03,12,5.80
2023,04,16,03,17,5.80
2023,04,16,03,22,5.80
2023,04,16,03,27,5.90
2023,04,16,03,32,6.00
2023,04,16,03,37,6.10
2023,04,16,03,42,6.00
2023,04,16,03,47,6.20
2023,04,16,03,52,6.20
2023,04,16,03,57,6.20
2023,04,16,04,02,6.40
2023,04,16,04,07,6.30
2023,04,16,04,12,6.40
2023,04,16,04,17,6.40
2023,04,16,04,22,6.40
2023,04,16,04,27,6.40
2023,04,16,04,32,6.40
2023,04,16,04,37,6.40
2023,04,16,04,42,6.40
2023,04,16,04,47,6.30
2023,04,16,04,52,6.30
2023,04,16,04,57,6.30
2023,04,16,05,02,6.20
2023,04,16,05,07,6.10
2023,04,16,05,12,6.00
2023,04,16,05,17,6.00
2023,04,16,05,22,6.00
2023,04,16,05,27,5.90
2023,04,16,05,32,5.90
2023,04,16,05,37,5.80
2023,04,16,05,42,5.70
2023,04,16,05,47,5.70
2023,04,16,05,52,5.70
2023,04,16,06,02,5.70
2023,04,16,06,07,5.60
2023,04,16,06,12,5.70
2023,04,16,06,17,5.60
2023,04,16,06,22,5.60
2023,04,16,06,27,5.50
2023,04,16,06,32,5.50
2023,04,16,06,37,5.50
2023,04,16,06,42,5.50
2023,04,16,06,47,5.50
2023,04,16,06,52,5.50
2023,04,16,06,57,5.60
2023,04,16,07,02,5.60
2023,04,16,07,07,5.60
2023,04,16,07,12,5.70
2023,04,16,07,17,5.70
2023,04,16,07,22,5.80
2023,04,16,07,27,5.90
2023,04,16,07,32,6.10
2023,04,16,07,37,6.30
2023,04,16,07,42,6.50
2023,04,16,07,47,6.60
2023,04,16,07,52,6.70
2023,04,16,07,57,6.80
2023,04,16,08,02,6.90
2023,04,16,08,07,7.00
2023,04,16,08,12,7.10
2023,04,16,08,17,7.10
2023,04,16,08,22,7.20
2023,04,16,08,27,7.30
2023,04,16,08,32,7.30
2023,04,16,08,37,7.30
2023,04,16,08,42,7.40
2023,04,16,08,47,7.40
2023,04,16,08,52,7.40
2023,04,16,08,57,7.50
2023,04,16,09,02,7.60
2023,04,16,09,07,7.70
2023,04,16,09,12,7.80
2023,04,16,09,17,7.90
2023,04,16,09,22,8.00
2023,04,16,09,27,8.00
2023,04,16,09,32,8.10
2023,04,16,09,37,8.10
2023,04,16,09,42,8.10
2023,04,16,09,47,8.10
2023,04,16,09,52,8.10
2023,04,16,09,57,8.20
2023,04,16,10,02,8.20
2023,04,16,10,07,8.20
2023,04,16,10,12,8.20
2023,04,16,10,17,8.30
2023,04,16,10,22,8.30
2023,04,16,10,27,8.30
2023,04,16,10,32,8.30
2023,04,16,10,37,8.40
2023,04,16,10,42,8.50
2023,04,16,10,47,8.50
2023,04,16,10,52,8.70
2023,04,16,10,57,8.70
2023,04,16,11,02,8.70
2023,04,16,11,07,8.70
2023,04,16,11,12,8.70
2023,04,16,11,17,8.80
2023,04,16,11,22,8.80
2023,04,16,11,27,8.80
2023,04,16,11,32,8.80
2023,04,16,11,37,8.80
2023,04,16,11,42,8.80
2023,04,16,11,47,8.90
2023,04,16,11,52,8.90
2023,04,16,11,57,9.00
2023,04,16,12,02,9.10
2023,04,16,12,07,9.00
2023,04,16,12,12,8.90
2023,04,16,12,17,8.70
2023,04,16,12,22,8.80
2023,04,16,12,27,8.80
2023,04,16,12,32,8.80
2023,04,16,12,37,8.80
2023,04,16,12,42,8.70
2023,04,16,12,47,8.60
2023,04,16,12,52,8.50
2023,04,16,12,57,8.30
2023,04,16,13,02,8.20
2023,04,16,13,07,8.20
2023,04,16,13,12,8.20
2023,04,16,13,17,8.20
2023,04,16,13,22,8.30
2023,04,16,13,27,8.50
2023,04,16,13,32,8.70
2023,04,16,13,37,8.90
2023,04,16,13,42,9.00
2023,04,16,13,47,9.10
2023,04,16,13,52,9.40
2023,04,16,13,57,9.60
2023,04,16,14,02,9.80
2023,04,16,14,07,10.00
2023,04,16,14,12,10.10
2023,04,16,14,17,10.40
2023,04,16,14,22,10.50
2023,04,16,14,27,10.70
2023,04,16,14,32,10.90
2023,04,16,14,37,11.20
2023,04,16,14,42,11.10
2023,04,16,14,47,11.10
2023,04,16,14,52,11.00
2023,04,16,14,57,11.00
2023,04,16,15,02,11.00
2023,04,16,15,07,10.90
2023,04,16,15,12,10.70
2023,04,16,15,17,10.40
2023,04,16,15,22,10.10
2023,04,16,15,27,9.70
2023,04,16,15,32,9.30
2023,04,16,15,37,9.10
2023,04,16,15,42,8.70
2023,04,16,15,47,8.50
2023,04,16,15,52,8.00
2023,04,16,15,57,7.70
2023,04,16,16,02,7.40
2023,04,16,16,07,7.40
2023,04,16,16,12,7.20
2023,04,16,16,17,7.00
2023,04,16,16,22,6.90
2023,04,16,16,27,6.80
2023,04,16,16,32,6.70
2023,04,16,16,37,6.80
2023,04,16,16,42,7.00
2023,04,16,16,47,7.10
2023,04,16,16,52,7.20
2023,04,16,16,57,7.30
2023,04,16,17,02,7.50
2023,04,16,17,07,7.60
2023,04,16,17,12,7.70
2023,04,16,17,17,7.90
2023,04,16,17,22,7.80
2023,04,16,17,27,7.50
2023,04,16,17,32,7.40
2023,04,16,17,37,7.50
2023,04,16,17,42,7.60
2023,04,16,17,47,7.50
2023,04,16,17,52,7.50
2023,04,16,17,57,7.60
2023,04,16,18,02,7.50
2023,04,16,18,07,7.40
2023,04,16,18,12,7.40
2023,04,16,18,17,7.30
2023,04,16,18,22,7.20
2023,04,16,18,27,7.10
2023,04,16,18,32,7.10
2023,04,16,18,37,7.10
2023,04,16,18,42,6.90
2023,04,16,18,47,6.90
2023,04,16,18,52,6.80
2023,04,16,18,57,6.60
2023,04,16,19,02,6.50
2023,04,16,19,07,6.30
2023,04,16,19,12,6.20
2023,04,16,19,17,6.10
2023,04,16,19,22,6.00
2023,04,16,19,27,5.90
2023,04,16,19,32,5.90
2023,04,16,19,37,5.80
2023,04,16,19,42,5.60
2023,04,16,19,47,5.50
2023,04,16,19,52,5.40
2023,04,16,19,57,5.40
2023,04,16,20,02,5.30
2023,04,16,20,07,5.20
2023,04,16,20,12,5.20
2023,04,16,20,17,5.20
2023,04,16,20,22,5.10
2023,04,16,20,27,5.20
2023,04,16,20,32,5.10
2023,04,16,20,37,5.10
2023,04,16,20,42,5.10
2023,04,16,20,47,5.10
2023,04,16,20,52,5.00
2023,04,16,20,57,4.90
2023,04,16,21,02,4.90
2023,04,16,21,07,4.90
2023,04,16,21,12,4.90
2023,04,16,21,17,5.00
2023,04,16,21,22,5.00
2023,04,16,21,27,5.00
2023,04,16,21,32,4.90
2023,04,16,21,37,4.80
2023,04,16,21,42,4.80
2023,04,16,21,47,4.90
2023,04,16,21,52,4.90
2023,04,16,21,57,4.80
2023,04,16,22,02,4.80
2023,04,16,22,07,4.80
2023,04,16,22,12,4.80
2023,04,16,22,17,4.90
2023,04,16,22,22,4.90
2023,04,16,22,27,4.90
2023,04,16,22,37,4.90
2023,04,16,22,42,4.90
2023,04,16,22,47,4.80
2023,04,16,22,52,4.70
2023,04,16,22,57,4.70
2023,04,16,23,02,4.70
2023,04,16,23,07,4.60
2023,04,16,23,12,4.60
2023,04,16,23,17,4.60
2023,04,16,23,22,4.60
2023,04,16,23,27,4.50
2023,04,16,23,32,4.50
2023,04,16,23,37,4.40
2023,04,16,23,42,4.40
2023,04,16,23,47,4.40
2023,04,16,23,52,4.30
2023,04,16,23,57,4.20
